Location: Pedholt
(56.0260°N, 10.2097°E)
Time: 06:25:32
(UTC+00:00)

SR - Pass Details

Date: 01 August 2021
Orbit: 581 x 874 km, 66.7° (Epoch: 24 September)

Event Time Altitude Azimuth Distance (km) Brightness Sun altitude
Rises 14:03:40 0° 314° (NW) 3,169 ? 41.6°
Reaches altitude 10° 14:06:14 10° 307° (NW) 2,192 ? 41.4°
Maximum altitude 14:10:49 39° 240° (WSW) 1,008 ? 40.8°
Drops below altitude 10° 14:15:02 10° 172° (S) 2,016 ? 40.3°
Sets 14:17:20 0° 164° (SSE) 2,883 ? 40.1°
